When you browse on this site, cookies collect data to enhance your experience and personalize the content and advertising you see.
Visit our Privacy Policy to learn more. By continuing to use the site, you agree to this use of cookies and data.
  • In Romania
  • List of Countries
  • For 7 days
  • Water Temperature
  • Satellite Maps
  • Weather Map
  • Weather Widgets
  • user-avatar
    Login

    Hourly Weather Zielenice

    Today, 9 December, Sunday

    Time Temperature Precipitation Wind Pressure Humidity
    00:00 +1°C° 0 mm 5 mps 731 mmHg 79%
    01:00 +1°C° 0 mm 4 mps 730 mmHg 81%
    02:00 +1°C° 0 mm 4 mps 730 mmHg 82%
    03:00 +1°C° 0 mm 4 mps 729 mmHg 83%
    04:00 +1°C° 0 mm 5 mps 728 mmHg 84%
    05:00 +1°C° 0.1 mm 5 mps 728 mmHg 82%
    06:00 +1°C° 0.1 mm 5 mps 727 mmHg 81%
    07:00 +1°C° 0 mm 4 mps 726 mmHg 82%
    08:00 +1°C° 0.7 mm 4 mps 726 mmHg 79%
    09:00 +2°C° 0.7 mm 5 mps 725 mmHg 76%
    10:00 +3°C° 0.7 mm 6 mps 725 mmHg 73%
    11:00 +4°C° 0.2 mm 6 mps 725 mmHg 71%
    12:00 +4°C° 0.2 mm 7 mps 724 mmHg 70%
    13:00 +5°C° 0 mm 6 mps 724 mmHg 69%
    14:00 +4°C° 0.4 mm 6 mps 724 mmHg 72%
    15:00 +5°C° 0.4 mm 5 mps 725 mmHg 76%
    16:00 +5°C° 0.4 mm 5 mps 725 mmHg 79%
    17:00 +3°C° 0.1 mm 5 mps 725 mmHg 80%
    18:00 +3°C° 0.1 mm 5 mps 725 mmHg 80%
    19:00 +3°C° 0.1 mm 5 mps 726 mmHg 81%
    20:00 +3°C° 0 mm 5 mps 726 mmHg 82%
    21:00 +3°C° 0 mm 5 mps 726 mmHg 82%
    22:00 +4°C° 0 mm 4 mps 726 mmHg 83%
    23:00 +4°C° 0.1 mm 4 mps 726 mmHg 83%

    Tomorrow, 10 December, Monday

    Time Temperature Precipitation Wind Pressure Humidity
    00:00 +3°C° 0.1 mm 5 mps 727 mmHg 84%
    01:00 +3°C° 0.1 mm 5 mps 727 mmHg 85%
    02:00 +3°C° 0.2 mm 5 mps 727 mmHg 84%
    03:00 +3°C° 0.2 mm 5 mps 727 mmHg 83%
    04:00 +3°C° 0.2 mm 6 mps 727 mmHg 82%
    05:00 +2°C° 0.2 mm 6 mps 727 mmHg 80%
    06:00 +2°C° 0.2 mm 7 mps 728 mmHg 78%
    07:00 +2°C° 0.2 mm 7 mps 728 mmHg 76%
    08:00 +2°C° 0.2 mm 7 mps 729 mmHg 76%
    09:00 +2°C° 0.2 mm 7 mps 729 mmHg 75%
    10:00 +2°C° 0.2 mm 7 mps 730 mmHg 74%
    11:00 +2°C° 0.1 mm 7 mps 730 mmHg 72%
    12:00 +2°C° 0.1 mm 7 mps 731 mmHg 70%
    13:00 +2°C° 0.1 mm 7 mps 731 mmHg 68%
    14:00 +2°C° 0.2 mm 6 mps 731 mmHg 69%
    15:00 +1°C° 0.2 mm 6 mps 732 mmHg 71%
    16:00 +1°C° 0.2 mm 5 mps 732 mmHg 73%
    17:00 0°C° 0.1 mm 5 mps 733 mmHg 75%
    18:00 0°C° 0.1 mm 5 mps 733 mmHg 77%
    19:00 -1°C° 0.1 mm 5 mps 733 mmHg 78%
    20:00 -1°C° 0 mm 4 mps 733 mmHg 80%
    21:00 -1°C° 0 mm 4 mps 733 mmHg 81%
    22:00 -2°C° 0 mm 4 mps 733 mmHg 83%
    23:00 -2°C° 0 mm 4 mps 733 mmHg 84%

    Day after tomorrow, 11 December, Tuesday

    Time Temperature Precipitation Wind Pressure Humidity
    00:00 -2°C° 0 mm 4 mps 734 mmHg 84%
    01:00 -2°C° 0 mm 4 mps 734 mmHg 85%
    02:00 -2°C° 0 mm 4 mps 734 mmHg 85%
    03:00 -2°C° 0 mm 4 mps 733 mmHg 86%
    04:00 -1°C° 0 mm 3 mps 733 mmHg 86%
    05:00 -1°C° 0 mm 3 mps 733 mmHg 87%
    06:00 -1°C° 0 mm 3 mps 733 mmHg 87%
    07:00 -2°C° 0 mm 3 mps 733 mmHg 87%
    08:00 -2°C° 0.1 mm 4 mps 733 mmHg 84%
    09:00 -1°C° 0.1 mm 4 mps 734 mmHg 81%
    10:00 0°C° 0.1 mm 4 mps 734 mmHg 79%
    11:00 0°C° 0.2 mm 4 mps 734 mmHg 79%
    12:00 0°C° 0.2 mm 4 mps 733 mmHg 79%
    13:00 0°C° 0.2 mm 4 mps 733 mmHg 79%
    14:00 +1°C° 0.2 mm 3 mps 733 mmHg 81%
    15:00 +1°C° 0.2 mm 3 mps 733 mmHg 84%
    16:00 +1°C° 0.2 mm 2 mps 734 mmHg 86%
    17:00 +1°C° 0.3 mm 2 mps 734 mmHg 87%
    18:00 +1°C° 0.3 mm 2 mps 734 mmHg 88%
    19:00 +1°C° 0.3 mm 2 mps 734 mmHg 89%
    20:00 +1°C° 0.2 mm 2 mps 734 mmHg 90%
    21:00 +1°C° 0.2 mm 2 mps 734 mmHg 91%
    22:00 -1°C° 0.2 mm 2 mps 735 mmHg 92%
    23:00 +1°C° 0.1 mm 1 mps 735 mmHg 92%

    12 December, Wednesday

    Time Temperature Precipitation Wind Pressure Humidity
    00:00 +1°C° 0.1 mm 1 mps 735 mmHg 93%
    01:00 +1°C° 0.1 mm 1 mps 735 mmHg 94%
    02:00 +1°C° 0 mm 1 mps 736 mmHg 94%
    03:00 +1°C° 0 mm 1 mps 736 mmHg 94%
    04:00 +1°C° 0 mm 1 mps 736 mmHg 94%
    05:00 +1°C° 0.1 mm 1 mps 737 mmHg 94%
    06:00 +1°C° 0.1 mm 1 mps 737 mmHg 94%
    07:00 +1°C° 0.1 mm 1 mps 737 mmHg 94%
    08:00 +1°C° 0.1 mm 1 mps 738 mmHg 93%
    09:00 +2°C° 0.1 mm 1 mps 738 mmHg 93%
    10:00 +2°C° 0.1 mm 1 mps 738 mmHg 92%
    11:00 +2°C° 0 mm 1 mps 739 mmHg 91%
    12:00 +2°C° 0 mm 1 mps 739 mmHg 90%
    13:00 +1°C° 0 mm 2 mps 739 mmHg 88%
    14:00 +2°C° 0 mm 1 mps 739 mmHg 89%
    15:00 +2°C° 0 mm 1 mps 739 mmHg 91%
    16:00 +1°C° 0 mm 1 mps 740 mmHg 92%
    17:00 +1°C° 0 mm 1 mps 740 mmHg 92%
    18:00 0°C° 0 mm 1 mps 740 mmHg 93%
    19:00 0°C° 0 mm 1 mps 740 mmHg 94%
    20:00 0°C° 0 mm 1 mps 740 mmHg 94%
    21:00 0°C° 0 mm 1 mps 741 mmHg 94%
    22:00 0°C° 0 mm 1 mps 741 mmHg 94%
    23:00 0°C° 0 mm 1 mps 741 mmHg 94%

    13 December, Thursday

    Time Temperature Precipitation Wind Pressure Humidity
    00:00 -1°C° 0 mm 1 mps 741 mmHg 94%
    01:00 -1°C° 0 mm 1 mps 741 mmHg 94%
    02:00 -1°C° 0 mm 1 mps 741 mmHg 94%
    03:00 -1°C° 0 mm 1 mps 741 mmHg 94%
    04:00 -3°C° 0 mm 2 mps 741 mmHg 94%
    05:00 -3°C° 0 mm 2 mps 741 mmHg 94%
    06:00 -3°C° 0 mm 2 mps 741 mmHg 93%
    07:00 -3°C° 0 mm 2 mps 741 mmHg 93%
    08:00 -2°C° 0 mm 2 mps 741 mmHg 91%
    09:00 -2°C° 0 mm 2 mps 741 mmHg 89%
    10:00 -1°C° 0 mm 2 mps 741 mmHg 87%
    11:00 -1°C° 0 mm 2 mps 740 mmHg 85%
    12:00 -1°C° 0 mm 2 mps 740 mmHg 83%
    13:00 -1°C° 0 mm 3 mps 740 mmHg 81%
    14:00 -1°C° 0 mm 2 mps 740 mmHg 83%
    15:00 -2°C° 0 mm 2 mps 740 mmHg 85%
    16:00 -2°C° 0 mm 2 mps 740 mmHg 88%
    17:00 0°C° 0 mm 1 mps 739 mmHg 89%
    18:00 0°C° 0 mm 1 mps 739 mmHg 90%
    19:00 -1°C° 0 mm 1 mps 739 mmHg 91%
    20:00 -1°C° 0 mm 1 mps 739 mmHg 91%
    21:00 -1°C° 0 mm 1 mps 739 mmHg 92%
    22:00 -1°C° 0 mm 1 mps 740 mmHg 92%
    23:00 -1°C° 0 mm 1 mps 739 mmHg 92%

    14 December, Friday

    Time Temperature Precipitation Wind Pressure Humidity
    00:00 -1°C° 0 mm 1 mps 739 mmHg 93%
    01:00 -2°C° 0 mm 1 mps 739 mmHg 93%
    02:00 -2°C° 0 mm 1 mps 739 mmHg 92%
    03:00 -2°C° 0 mm 1 mps 739 mmHg 92%
    04:00 -1°C° 0 mm 1 mps 739 mmHg 91%
    05:00 -2°C° 0 mm 1 mps 739 mmHg 92%
    06:00 -2°C° 0 mm 1 mps 740 mmHg 92%
    07:00 -2°C° 0 mm 1 mps 740 mmHg 92%
    08:00 -1°C° 0 mm 1 mps 740 mmHg 90%
    09:00 -2°C° 0 mm 0 mps 740 mmHg 88%
    10:00 -1°C° 0 mm 0 mps 740 mmHg 86%
    11:00 -1°C° 0 mm 0 mps 740 mmHg 85%
    12:00 0°C° 0 mm 0 mps 740 mmHg 84%
    13:00 0°C° 0 mm 0 mps 740 mmHg 83%
    14:00 -1°C° 0 mm 0 mps 740 mmHg 85%
    15:00 0°C° 0 mm 1 mps 740 mmHg 87%
    16:00 0°C° 0 mm 1 mps 740 mmHg 90%
    17:00 0°C° 0 mm 1 mps 740 mmHg 90%
    18:00 -1°C° 0 mm 1 mps 740 mmHg 91%
    19:00 -1°C° 0 mm 1 mps 740 mmHg 91%
    20:00 -1°C° 0 mm 1 mps 740 mmHg 91%
    21:00 -1°C° 0 mm 1 mps 740 mmHg 91%
    22:00 -1°C° 0 mm 1 mps 740 mmHg 92%
    23:00 -1°C° 0 mm 1 mps 740 mmHg 91%
    Show more